Location: Champignolles
(47.0543°N, 4.5663°E)
Time: 15:42:08
(UTC+00:00)

Meteor 2-6 Rocket - Visible Passes

Search period start: 12 April 2021 00:00
Search period end: 22 April 2021 00:00
Orbit: 805 x 915 km, 81.3° (Epoch: 11 April)

Date Brightness Start Highest point End Pass type
(mag) Time Alt. Az. Time Alt. Az. Time Alt. Az.
12 Apr 4.8 00:52:13 52° NE 00:52:13 52° NE 00:56:24 10° NNE visible
12 Apr 5.7 02:34:26 19° WNW 02:34:41 19° WNW 02:38:32 10° NNW visible
13 Apr 4.8 00:43:07 50° NE 00:43:07 50° NE 00:47:14 10° NNE visible
13 Apr 5.7 02:25:20 20° WNW 02:25:30 20° WNW 02:29:24 10° NNW visible
14 Apr 4.9 00:34:00 48° NE 00:34:00 48° NE 00:38:03 10° NNE visible
14 Apr 5.7 02:16:12 20° WNW 02:16:19 20° WNW 02:20:16 10° NNW visible
15 Apr 4.9 00:24:52 47° NE 00:24:52 47° NE 00:28:52 10° NNE visible
15 Apr 5.7 02:07:05 21° WNW 02:07:08 21° WNW 02:11:08 10° NNW visible
16 Apr 4.9 00:15:44 46° NE 00:15:44 46° NE 00:19:42 10° NNE visible
16 Apr 5.7 01:57:56 21° WNW 01:57:57 21° WNW 02:02:00 10° NNW visible
17 Apr 5.0 00:06:34 45° NE 00:06:34 45° NE 00:10:31 10° NNE visible
17 Apr 5.7 01:48:46 21° WNW 01:48:46 21° WNW 01:52:53 10° NNW visible
17 Apr 5.0 23:57:24 44° NE 23:57:24 44° NE 00:01:21 10° NNE visible
18 Apr 5.7 01:39:37 22° WNW 01:39:37 22° WNW 01:43:44 10° NNW visible
18 Apr 5.0 23:48:14 44° NE 23:48:14 44° NE 23:52:10 10° NNE visible
19 Apr 5.7 01:30:26 22° WNW 01:30:26 22° WNW 01:34:37 10° NNW visible
19 Apr 5.0 23:39:03 43° NE 23:39:03 43° NE 23:42:59 10° NNE visible
20 Apr 5.7 01:21:14 23° WNW 01:21:14 23° WNW 01:25:29 10° NNW visible
20 Apr 5.0 23:29:50 43° NE 23:29:50 43° NE 23:33:49 10° NNE visible
21 Apr 5.6 01:12:02 23° WNW 01:12:03 23° WNW 01:16:20 10° NNW visible
21 Apr 4.9 23:20:37 43° NE 23:20:37 43° NE 23:24:38 10° NNE visible
